Bookmark and Share
Track history (hours):
 

Captain Jimmy T Moran

More information available from US FCC via Universal Licensing System and Coast Guard Vessel Documentation Center.

Last reported at 2014-Apr-24 03:33 UTC. Time now 2014-Apr-24 04:28 UTC.
Position N 29°57' W 090°19'.

Length 26 m; draft 4.9 m.

Type: Tug. MMSI: 367382920.

NotesDate/timePositionNaut miles runAvg speedWind from/ knotsBaromVisibWave heightAir tempDewpointWater temp
2014-Apr-24 03:33N 29°57' W 090°19'  
2014-Apr-21 12:14N 29°57' W 090°19'1 0.4
2014-Apr-21 09:04N 29°56' W 090°20'4 8.1
2014-Apr-21 08:32N 29°59' W 090°24'0 0.2
2014-Apr-21 07:33N 29°59' W 090°24'0 0.0
2014-Apr-21 06:33N 29°59' W 090°24'  
2014-Apr-17 11:14N 29°55' W 090°06'0 0.0
2014-Apr-17 10:33N 29°55' W 090°06'1 0.6
2014-Apr-17 09:33N 29°55' W 090°07'17 0.3
2014-Apr-15 05:34N 29°60' W 090°26'1 0.3
2014-Apr-15 03:32N 29°60' W 090°26'1 0.6
2014-Apr-15 02:34N 29°60' W 090°27'1 0.6
2014-Apr-15 01:34N 29°60' W 090°26'0 0.0
2014-Apr-15 00:33N 29°60' W 090°26'0 0.0
2014-Apr-14 23:34N 29°60' W 090°26'0 0.0
2014-Apr-14 22:33N 29°60' W 090°26'0 0.0
2014-Apr-14 21:34N 29°60' W 090°26'7 1.0
2014-Apr-14 14:33N 30°03' W 090°33'0 0.0
2014-Apr-14 13:33N 30°03' W 090°33'0 0.0
2014-Apr-14 11:33N 30°03' W 090°33'0 0.0
2014-Apr-14 10:33N 30°03' W 090°33'0 0.0
2014-Apr-14 09:33N 30°03' W 090°33'0 0.0
2014-Apr-14 08:33N 30°03' W 090°33'0 0.0
2014-Apr-14 07:33N 30°03' W 090°33'0 0.0
2014-Apr-14 06:33N 30°03' W 090°33'0 0.0
2014-Apr-14 05:33N 30°03' W 090°33'  

Dump ship's entire track history

sailing weather and tide predictions

Captain Jimmy T Moran — WDE6653 — position and weather